User: anonymous   Login
Location: Bluff Heights
(33.7692°N, 118.1592°W)
Time: 21:09:46
(UTC+00:00)
Language:

XW-2B - Orbit

View from above orbital plane
View from above orbital plane
View from above satellite
View from above satellite

Ground track
Ground track

The orbit data is extracted from the following two-line orbital elements,

1 40911U 15049N   21262.49181567  .00001346  00000-0  70997-4 0  9998
2 40911  97.4881 264.1934 0012681 212.5989 298.6500 15.17224545331741
Epoch (UTC): 19 September 2021 11:48:12
Eccentricity: 0.0012681
inclination: 97.4881°
perigee height: 505 km
apogee height: 523 km
right ascension of ascending node: 264.1934°
argument of perigee: 212.5989°
revolutions per day: 15.17224545
mean anomaly at epoch: 298.6500°
orbit number at epoch: 33174

The dashed part of the orbit path shows where the satellite is in the earth's shadow,  

DLR